Arlington, WA

7:57 PM PDT on May 25, 2018 (GMT -0700)
Arlington Municipal

Weather History for KAWO - November, 2014

Change the Weather History Date:

Friday, November 28, 2014

  Actual Average Record
Temperature  
Mean Temperature 45 °F -  
Max Temperature 57 °F 44 °F 57 °F (2014)
Min Temperature 32 °F 21 °F 8 °F (2006)
Degree Days  
Heating Degree Days 20    
Moisture  
Dew Point 38 °F    
Average Humidity 83    
Maximum Humidity 93    
Minimum Humidity 67    
Precipitation  
Precipitation 0.44 in - - ()
Sea Level Pressure  
Sea Level Pressure 29.54 in    
Wind  
Wind Speed 12 mph (SW)    
Max Wind Speed 26 mph    
Max Gust Speed 36 mph    
Visibility 9 miles    
Events      
Averages and records for this station are not official NWS values.
T = Trace of Precipitation, MM = Missing Value Source: NWS Daily Summary

Daily Weather History Graph

Daily Weather History Graph

Search for Another Location

Airport or City:

Astronomy

Nov. 28, 2014 Rise Set
Actual Time 7:34 AM PST 4:18 PM PST
Civil Twilight 6:58 AM PST 4:54 PM PST
Nautical Twilight 6:20 AM PST 5:32 PM PST
Astronomical Twilight 5:42 AM PST 6:10 PM PST
Moon 12:14 PM PST (11/28) 11:32 PM PST (11/28)
Length of Visible Light 9h 55m
Length of Day
8h 44m
Waxing Crescent, 43% of the Moon is Illuminated
Nov 28
Waxing Crescent
Nov 29
First Quarter
Dec 6
Full
Dec 14
Last Quarter
Dec 21
New

Hourly Weather History & Observations

Time (PST) Temp. Windchill Dew Point Humidity Pressure Visibility Wind Dir Wind Speed Gust Speed Precip Events Conditions
12:15 AM 55.4 °F - 46.4 °F 72% 29.63 in 10.0 mi South 21.9 mph 35.7 mph N/A   Overcast
12:35 AM 55.4 °F - 48.2 °F 77% 29.62 in 10.0 mi South 24.2 mph 34.5 mph N/A   Overcast
12:55 AM 57.2 °F - 46.4 °F 67% 29.61 in 10.0 mi South 26.5 mph 33.4 mph N/A   Overcast
1:15 AM 55.4 °F - 46.4 °F 72% 29.61 in 10.0 mi South 19.6 mph 33.4 mph N/A   Overcast
1:35 AM 55.4 °F - 48.2 °F 77% 29.60 in 10.0 mi South 19.6 mph 27.6 mph N/A   Overcast
1:55 AM 53.6 °F - 48.2 °F 82% 29.61 in 10.0 mi South 18.4 mph 27.6 mph N/A   Overcast
2:15 AM 55.4 °F - 46.4 °F 72% 29.60 in 10.0 mi South 20.7 mph 29.9 mph N/A   Overcast
2:35 AM 53.6 °F - 48.2 °F 82% 29.61 in 10.0 mi South 20.7 mph 27.6 mph N/A   Overcast
2:55 AM 53.6 °F - 48.2 °F 82% 29.61 in 9.0 mi South 16.1 mph 24.2 mph N/A   Overcast
3:15 AM 53.6 °F - 48.2 °F 82% 29.60 in 6.0 mi South 9.2 mph 19.6 mph N/A   Overcast
3:35 AM 53.6 °F - 48.2 °F 82% 29.59 in 10.0 mi South 8.1 mph 16.1 mph N/A   Overcast
3:55 AM 53.6 °F - 48.2 °F 82% 29.57 in 10.0 mi South 10.4 mph 16.1 mph N/A   Overcast
4:15 AM 53.6 °F - 48.2 °F 82% 29.57 in 10.0 mi South 12.7 mph - N/A   Overcast
4:35 AM 53.6 °F - 48.2 °F 82% 29.56 in 10.0 mi South 11.5 mph 18.4 mph N/A   Overcast
4:55 AM 55.4 °F - 48.2 °F 77% 29.56 in 10.0 mi South 10.4 mph - N/A   Overcast
5:15 AM 53.6 °F - 48.2 °F 82% 29.55 in 10.0 mi South 9.2 mph - N/A   Overcast
5:35 AM 53.6 °F - 48.2 °F 82% 29.54 in 10.0 mi South 13.8 mph - N/A   Overcast
5:55 AM 53.6 °F - 48.2 °F 82% 29.53 in 10.0 mi SSW 15.0 mph 19.6 mph N/A   Overcast
6:15 AM 51.8 °F - 46.4 °F 82% 29.55 in 10.0 mi West 13.8 mph 19.6 mph N/A   Overcast
6:35 AM 48.2 °F - 42.8 °F 82% 29.55 in 7.0 mi West 10.4 mph - N/A   Overcast
6:55 AM 46.4 °F 42.4 °F 42.8 °F 87% 29.54 in 5.0 mi WNW 8.1 mph - N/A   Overcast
7:15 AM 44.6 °F 40.7 °F 42.8 °F 93% 29.54 in 5.0 mi WNW 6.9 mph - N/A   Overcast
7:35 AM 46.4 °F 42.4 °F 42.8 °F 87% 29.54 in 7.0 mi WNW 8.1 mph - 0.01 in   Overcast
7:55 AM 46.4 °F - 41.0 °F 81% 29.54 in 7.0 mi Calm Calm - 0.03 in   Overcast
8:15 AM 46.4 °F - 41.0 °F 81% 29.54 in 5.0 mi Calm Calm - 0.01 in   Overcast
8:35 AM 46.4 °F 42.9 °F 41.0 °F 81% 29.54 in 3.0 mi NW 6.9 mph - 0.02 in   Overcast
8:55 AM 44.6 °F 39.2 °F 37.4 °F 76% 29.55 in 2.5 mi NW 10.4 mph - 0.02 in   Overcast
9:15 AM 42.8 °F 37.0 °F 39.2 °F 87% 29.55 in 5.0 mi NW 10.4 mph - N/A   Mostly Cloudy
9:35 AM 42.8 °F 38.6 °F 37.4 °F 81% 29.56 in 6.0 mi NNW 6.9 mph - 0.01 in   Overcast
9:55 AM 42.8 °F 38.6 °F 37.4 °F 81% 29.56 in 10.0 mi North 6.9 mph - 0.03 in   Overcast
10:15 AM 42.8 °F 37.5 °F 37.4 °F 81% 29.55 in 10.0 mi NNW 9.2 mph - 0.02 in   Overcast
10:35 AM 42.8 °F 38.0 °F 37.4 °F 81% 29.55 in 9.0 mi NNW 8.1 mph - 0.04 in   Overcast
10:55 AM 41.0 °F 37.1 °F 37.4 °F 87% 29.55 in 10.0 mi North 5.8 mph - 0.05 in   Mostly Cloudy
11:15 AM 41.0 °F 37.1 °F 37.4 °F 87% 29.55 in 10.0 mi NNW 5.8 mph - 0.02 in   Overcast
11:35 AM 39.2 °F 37.0 °F 35.6 °F 87% 29.54 in 8.0 mi NNW 3.5 mph - 0.04 in   Overcast
11:55 AM 39.2 °F 33.0 °F 35.6 °F 87% 29.53 in 10.0 mi North 9.2 mph - 0.07 in   Mostly Cloudy
12:15 PM 39.2 °F 33.0 °F 33.8 °F 81% 29.54 in 10.0 mi North 9.2 mph - 0.01 in   Overcast
12:35 PM 39.2 °F 34.2 °F 33.8 °F 81% 29.52 in 10.0 mi NNW 6.9 mph - 0.03 in   Overcast
12:55 PM 37.4 °F 32.1 °F 33.8 °F 87% 29.52 in 10.0 mi NNW 6.9 mph - 0.04 in   Overcast
1:15 PM 37.4 °F 30.3 °F 33.8 °F 87% 29.52 in 10.0 mi NNW 10.4 mph - 0.03 in   Overcast
1:35 PM 37.4 °F 32.8 °F 33.8 °F 87% 29.51 in 10.0 mi NW 5.8 mph - 0.06 in   Overcast
1:55 PM 37.4 °F 34.9 °F 32.0 °F 81% 29.50 in 10.0 mi WNW 3.5 mph - 0.07 in   Overcast
2:15 PM 37.4 °F - 32.0 °F 81% 29.50 in 10.0 mi Calm Calm - N/A   Overcast
2:35 PM 37.4 °F - 32.0 °F 81% 29.50 in 10.0 mi Calm Calm - N/A   Overcast
2:55 PM 37.4 °F 32.1 °F 33.8 °F 87% 29.49 in 10.0 mi South 6.9 mph - N/A   Overcast
3:15 PM 37.4 °F 32.8 °F 33.8 °F 87% 29.49 in 10.0 mi WSW 5.8 mph - N/A   Overcast
3:35 PM 37.4 °F - 33.8 °F 87% 29.49 in 10.0 mi Calm Calm - N/A   Overcast
3:55 PM 37.4 °F - 33.8 °F 87% 29.49 in 10.0 mi Calm Calm - N/A   Overcast
4:15 PM 37.4 °F 34.9 °F 33.8 °F 87% 29.48 in 10.0 mi SW 3.5 mph - N/A   Overcast
4:35 PM 37.4 °F 34.9 °F 33.8 °F 87% 29.48 in 10.0 mi SSW 3.5 mph - N/A   Overcast
4:55 PM 37.4 °F 34.9 °F 33.8 °F 87% 29.49 in 10.0 mi WSW 3.5 mph - N/A   Overcast
5:15 PM 37.4 °F - 32.0 °F 81% 29.48 in 10.0 mi Calm Calm - N/A   Overcast
5:35 PM 37.4 °F 34.9 °F 33.8 °F 87% 29.49 in 10.0 mi SSE 3.5 mph - N/A   Overcast
5:55 PM 37.4 °F 33.8 °F 33.8 °F 87% 29.50 in 10.0 mi SSW 4.6 mph - N/A   Overcast
6:15 PM 37.4 °F 32.8 °F 33.8 °F 87% 29.51 in 10.0 mi SW 5.8 mph - N/A   Overcast
6:35 PM 37.4 °F 32.8 °F 33.8 °F 87% 29.50 in 10.0 mi SSE 5.8 mph - N/A   Overcast
6:55 PM 35.6 °F - 33.8 °F 93% 29.51 in 9.0 mi Calm Calm - N/A   Overcast
7:15 PM 37.4 °F 33.8 °F 33.8 °F 87% 29.51 in 10.0 mi SSE 4.6 mph - N/A   Overcast
7:35 PM 37.4 °F 34.9 °F 33.8 °F 87% 29.52 in 8.0 mi SSE 3.5 mph - N/A   Overcast
7:55 PM 37.4 °F 33.8 °F 33.8 °F 87% 29.52 in 6.0 mi SSE 4.6 mph - N/A   Overcast
8:15 PM 37.4 °F 34.9 °F 33.8 °F 87% 29.52 in 9.0 mi SSE 3.5 mph - N/A   Overcast
8:35 PM 37.4 °F 34.9 °F 33.8 °F 87% 29.52 in 7.0 mi South 3.5 mph - N/A   Overcast
8:55 PM 37.4 °F 33.8 °F 33.8 °F 87% 29.53 in 9.0 mi SSW 4.6 mph - N/A   Overcast
9:15 PM 37.4 °F 31.4 °F 33.8 °F 87% 29.53 in 10.0 mi South 8.1 mph - N/A   Overcast
9:35 PM 37.4 °F 32.8 °F 33.8 °F 87% 29.53 in 7.0 mi South 5.8 mph - 0.01 in   Overcast
9:55 PM 35.6 °F - 30.2 °F 81% 29.54 in 5.0 mi Calm Calm - 0.02 in   Overcast
10:15 PM 35.6 °F 30.7 °F 32.0 °F 87% 29.53 in 10.0 mi SSE 5.8 mph - 0.01 in   Overcast
10:35 PM 37.4 °F 32.1 °F 32.0 °F 81% 29.53 in 10.0 mi SSE 6.9 mph - 0.01 in   Overcast
10:55 PM 35.6 °F - 30.2 °F 81% 29.54 in 10.0 mi Calm Calm - 0.01 in   Overcast
11:15 PM 33.8 °F 30.8 °F 28.4 °F 81% 29.55 in 2.5 mi North 3.5 mph - 0.03 in   Overcast
11:35 PM 33.8 °F - 28.4 °F 81% 29.56 in 2.0 mi Calm Calm - 0.07 in   Overcast
11:55 PM 32.0 °F 27.5 °F 28.4 °F 87% 29.57 in 2.0 mi South 4.6 mph - 0.10 in   Overcast